Location: Barcelona
(41.3829°N, 2.1774°E)
Time: 20:50:03
(UTC+00:00)

ISS - Pass Details

Date: 12 July 2025
Orbit: 413 x 417 km, 51.6° (Epoch: 13 July)

Event Time Altitude Azimuth Distance (km) Brightness Sun altitude
Rises 22:21:06 0° 299° (WNW) 2,353 0.9 -23.0°
Reaches altitude 10° 22:23:58 10° 326° (NW) 1,491 0.1 -23.2°
Maximum altitude 22:25:51 14° 0° (N) 1,265 -0.5 -23.3°
Drops below altitude 10° 22:27:44 10° 35° (NE) 1,492 -0.6 -23.5°
Enters shadow 22:30:33 - 61° (ENE) 2,340 0.1 -23.7°
